Showing default

AISTECHSAT-2, 43768

Orbit data source: Space-Track

AISTECHSAT-2, 43768 is a payload satellite owned by AISTech (ES) in SSO that was launched on Mon, 03 Dec 2018 UTC via an FALCON 9 launch vehicle from the Air Force Western Test Range (AFWTR). Payload-class satellites include a variety of spacecraft equipped with specific instruments for various scientific and technological missions. These include communications satellites like Starlink; space stations such as the ISS; scientific satellites like the Hubble; Earth observation satellites from companies like Planet Labs, Umbra, and HawkEye 360; GPS; miniature CubeSats for education and research; and military/defense satellites.

Loading next visibility...
Identifier
43768, 2018-099L
Orbit
SSO
Country
Flag of ESES / SPN
Related business
Manufacturer
AISTech
Mission
Operational Commercial Communications
Bus & Motor
CUBESAT 6U, Unknown motor
Mass
10 kg wet, 10 kg dry
Launch date (UTC)
2018-12-03 (7 years ago)
Launch vehicle
FALCON 9
Launch site
Air Force Western Test Range (AFWTR)
Object type
Payload
Rocket body
Debris
Shape & HBR
Box + 3 Pan, 0.3 m
Radar Cross Section
0.054 m², Small (<0.1 m²)

Expand to show TLE details & history
Last TLE update: 7 hours ago

TLE from 7 hours ago
0 AISTECHSAT-2
1 43768U 18099L   25354.09209728  .00004575  00000-0  26190-3 0  9993
2 43768  97.4575  41.0524 0004637 182.7066 177.4141 15.13114845385175
Epoch: 2025-12-20T02:12Z
TLE epoch observation values (Epoch: 2025-12-20T02:12:37.204Z)
Latitude
-0.00005°
Longitude
-81.02648°
Altitude
532.986 km
Speed
7.594 km/s
True Right ascension
02h 44m 12s
True Declination
0° 00' 00"
Sunlit
Object was in full shadow at epoch
Visualization orbit readout
Latitude
Unknown
Longitude
Unknown
Altitude
Unknown
Speed
Unknown
Apparent Right ascension
Unknown
Apparent Declination
Unknown
Sunlit
N/A
Visualization observer readout
Local Sidereal Time
07:46:53
Azimuth
Unknown
Elevation
Unknown
Doppler factor
Unknown
Orbital elements
Apogee altitude
526.885 km
Perigee altitude
520.485 km
Semi-major axis
6,901.822 km
Eccentricity
0.00046
Inclination
97.4575°
RAAN
41.0524°
Arg. of periapsis
182.7066°
True anomaly
177.4165°
Mean anomaly
177.4141°
Eccentric anomaly
177.4153°
Mean motion
3.78528 °/min
Orbital period
95.11 mins
BSTAR
0.0002619
Loading maneuver chart data...
Computing Atmospheric mass density...
Loading historical data...
Loading historical data...
Loading historical data...
Loading historical data...
Loading historical data...
Loading historical data...
Loading historical data...

Documentation

Showing up to 5 results
|